EHI
17 15 14 13 12 12 11 9 8 7 6 4 3 3 2 2 2 1 0 0 0 0 0 0 0 0 0 0 0 0 0 0 0 0 0 0 0 0 0 0 0 0 0
21 19 16 14 13 12 11 10 9 7 5 4 3 3 2 1 1 0 0 0 0 0 0 0 0 0 0 0 0 0 0 0 0 0 0 0 0 0 0 0 0 0 0
27 25 20 16 14 12 11 10 9 8 5 3 4 4 2 0 0 0 0 0 0 0 0 0 0 0 0 0 0 0 0 0 0 0 0 0 0 0 0 0 0 0 0
29 28 23 17 12 10 9 9 9 8 5 3 3 3 2 0 0 0 0 0 0 0 0 0 0 0 0 0 0 0 0 0 0 0 0 0 0 0 0 0 0 0 0
26 26 21 13 9 8 8 8 8 7 6 4 2 1 1 1 0 0 0 0 0 0 0 0 0 0 0 0 0 0 0 0 0 0 0 0 0 0 0 0 0 0 0
21 19 15 9 7 7 9 10 9 7 6 5 2 1 2 1 0 0 0 0 0 0 0 0 0 0 0 0 0 0 0 0 0 0 0 0 0 0 0 0 0 0 0
17 15 12 9 8 9 11 12 12 9 7 6 4 3 2 1 0 0 0 0 0 0 0 0 0 0 0 0 0 0 0 0 0 0 0 0 0 0 0 0 0 0 0
18 16 14 12 11 11 12 14 13 11 9 8 6 4 3 1 0 0 0 0 0 0 0 0 0 0 0 0 0 0 0 0 0 0 0 0 0 0 0 0 0 0 0
22 21 19 17 14 13 12 13 13 12 11 10 7 6 4 2 1 0 0 0 0 0 0 0 0 0 0 0 0 0 0 0 0 0 0 0 0 0 0 0 0 0 0
28 27 23 20 17 15 13 12 11 10 10 9 8 6 4 3 2 1 0 0 0 0 0 0 0 0 0 0 0 0 0 0 0 0 0 0 0 0 0 0 0 0 0
32 29 25 20 16 14 12 11 9 8 8 9 8 5 3 3 3 1 0 0 0 1 1 1 0 0 0 0 0 0 0 0 0 0 0 0 0 0 0 0 0 0 0
30 27 23 18 14 12 10 9 7 7 7 8 7 5 3 3 3 2 1 0 0 1 2 2 1 0 0 0 0 0 0 0 0 0 0 0 0 0 0 0 0 0 0
24 23 21 19 16 12 9 7 6 6 7 7 6 4 4 4 4 3 1 0 0 1 2 2 1 0 0 0 0 0 0 0 0 0 0 0 0 0 0 0 0 0 0
20 21 22 21 19 14 9 7 5 5 5 5 5 5 5 6 5 4 2 1 0 0 1 1 0 0 0 0 0 0 0 0 0 0 0 0 0 0 0 0 0 0 0
20 21 22 22 20 15 10 6 4 3 2 3 4 5 6 6 5 3 2 1 0 0 0 0 0 0 0 0 0 0 0 0 0 0 0 0 0 0 0 0 0 0 0
21 21 22 21 18 14 9 5 3 2 1 1 2 4 5 5 4 2 1 0 0 0 0 0 0 0 0 0 0 0 0 0 0 0 0 0 0 0 0 0 0 0 0
19 20 20 18 14 11 8 6 5 3 2 1 1 1 3 3 2 0 0 0 0 0 0 1 1 1 1 0 0 0 0 0 0 0 0 0 0 0 0 0 0 0 0
14 14 14 13 10 8 7 6 6 6 5 3 1 0 1 1 0 0 0 0 0 0 1 2 2 2 2 1 0 0 0 0 0 0 0 0 0 0 0 0 0 0 0
8 6 6 8 7 6 6 6 6 6 6 5 3 1 0 0 0 0 0 0 0 1 1 3 3 3 2 1 0 0 0 0 0 0 0 0 0 0 0 0 0 0 0
3 2 2 4 4 5 6 6 6 6 6 6 4 2 1 0 0 0 0 0 0 1 2 2 2 2 1 0 0 0 0 0 0 0 0 0 0 0 0 0 0 0 0
2 1 1 2 3 4 5 6 6 6 6 6 5 2 1 0 0 0 0 0 0 1 2 1 1 1 0 0 0 0 0 0 0 0 0 0 0 0 0 0 0 0 0
3 2 1 2 4 4 4 6 6 6 6 6 4 1 0 0 0 0 0 0 0 0 0 0 0 0 0 0 0 0 0 0 0 0 0 0 0 0 0 0 0 0 0
5 3 2 4 5 4 4 6 6 6 6 5 3 1 0 0 0 0 0 0 0 0 0 0 0 0 0 0 0 0 0 0 0 0 0 0 0 0 0 0 0 0 0
5 4 5 6 6 4 4 6 6 6 6 4 3 2 0 0 0 0 0 0 0 0 0 0 0 0 0 0 0 0 0 0 0 0 0 0 0 0 0 0 0 0 0
4 5 6 7 6 5 5 6 6 6 5 4 3 1 0 0 0 0 0 0 0 0 0 0 0 0 0 0 0 0 0 0 0 0 0 0 0 0 0 0 0 0 0
2 4 6 7 6 6 6 6 6 6 5 4 2 1 0 0 0 0 0 0 0 0 0 0 0 0 0 0 0 0 0 0 0 0 0 0 0 0 0 0 0 0 0
Wind_Speed
3 3 2 2 2 2 1 1 2 1 1 2 1 2 2 2 1 1 1 1 1 1 1 1 1 0 1 1 0 0 1 2 2 1 1 0 1 1 1 1 2 2 2
5 4 3 2 2 2 2 2 2 2 1 1 2 2 2 2 1 2 1 1 1 2 1 2 1 1 1 1 1 1 0 1 2 2 1 0 1 1 2 2 2 2 2
4 4 3 3 3 3 2 2 2 2 1 1 2 2 2 1 1 1 1 1 2 1 1 2 1 2 2 2 2 1 1 1 1 2 1 1 1 1 2 2 2 1 2
4 4 4 3 3 3 2 2 2 2 2 2 2 2 2 2 1 1 1 2 2 2 1 2 2 2 2 1 2 1 1 2 2 2 1 1 1 1 2 2 1 1 1
5 4 3 3 2 2 2 2 2 2 2 2 2 2 2 2 1 1 1 2 2 2 2 2 2 4 4 2 2 1 2 2 2 2 1 1 1 1 1 1 2 1 1
5 4 3 3 3 2 2 2 2 2 2 2 2 2 2 1 2 2 3 2 2 2 2 2 2 3 4 4 4 3 3 3 2 2 1 1 1 1 1 2 2 1 0
4 4 3 4 3 2 3 2 2 2 2 2 2 2 2 1 2 3 4 3 2 2 2 1 2 2 2 2 3 3 3 3 2 2 2 1 1 2 2 1 2 2 2
4 4 4 4 3 2 2 2 2 2 2 2 2 2 2 1 2 4 4 3 3 2 2 2 2 1 2 2 2 3 2 2 1 1 2 2 1 1 2 2 3 2 1
5 4 4 4 4 3 2 2 2 2 2 2 2 3 3 1 2 4 4 3 2 2 1 2 2 1 2 3 3 2 2 2 2 2 2 2 2 2 3 2 2 2 1
6 5 4 4 4 4 3 2 1 2 2 2 2 2 3 1 2 3 5 3 2 1 1 1 1 2 2 2 2 2 1 1 2 2 3 3 2 1 2 3 3 2 1
6 5 5 5 5 4 3 2 2 2 2 2 2 2 2 1 1 3 4 3 2 2 1 0 0 1 2 2 2 1 1 1 1 1 2 2 2 1 1 0 2 3 3
5 5 5 4 4 4 4 2 2 3 2 2 2 1 0 0 0 1 3 3 3 2 1 1 1 1 2 2 1 1 2 3 2 2 1 1 1 1 1 1 1 1 2
5 5 4 4 3 3 4 3 2 2 2 2 2 2 1 1 0 1 2 3 3 2 1 1 1 2 2 2 2 2 2 2 2 1 0 1 1 2 1 1 1 1 1
4 4 4 4 3 3 2 3 3 3 3 3 3 3 2 1 1 1 0 1 2 2 1 1 2 3 3 2 2 2 1 1 2 1 1 1 1 1 1 0 0 1 1
5 4 4 4 4 3 2 1 2 3 4 5 4 4 4 3 4 4 3 2 2 2 2 2 2 2 2 1 1 1 1 1 1 0 0 0 1 1 1 1 0 0 0
4 5 4 4 4 3 3 1 2 1 2 4 5 5 4 4 5 5 5 4 4 5 4 2 1 1 1 1 1 0 0 0 0 0 0 0 0 0 1 1 0 0 1
4 4 4 4 4 4 4 4 2 1 1 0 2 4 5 5 5 5 5 4 4 5 3 2 2 2 1 1 1 1 0 1 0 1 0 0 0 0 0 0 0 0 1
3 4 4 4 4 5 5 4 4 4 2 2 1 3 5 5 5 5 5 5 2 1 2 2 2 2 2 2 1 1 0 0 0 0 0 0 0 0 0 0 1 1 1
3 3 3 3 4 4 4 4 4 4 4 3 1 1 3 4 3 3 5 3 3 3 2 2 2 2 2 2 1 1 1 1 0 0 0 1 1 1 1 1 1 1 1
2 4 4 3 3 4 4 4 4 4 4 4 4 4 3 4 3 3 3 3 3 3 3 3 2 2 2 2 2 1 1 1 1 1 1 1 1 1 2 2 2 1 2
2 3 4 3 3 4 4 5 5 5 4 4 4 5 8 6 5 5 4 4 4 4 3 3 3 3 2 2 2 2 2 1 2 1 1 1 1 1 1 1 2 2 2
2 2 2 3 3 3 4 4 4 4 5 5 3 4 7 4 4 4 4 4 4 3 4 4 3 3 3 3 3 3 2 2 2 2 2 2 1 1 1 1 1 1 1
2 2 2 2 2 3 3 3 4 4 4 4 4 4 4 4 4 4 4 4 3 3 3 3 3 3 2 2 3 4 4 3 3 3 2 2 1 1 1 1 2 2 2
2 3 3 2 2 2 3 3 3 4 4 4 5 5 5 4 4 4 4 3 3 3 3 3 3 4 5 3 2 2 3 3 3 3 4 3 2 2 1 2 2 2 2
2 2 2 2 2 3 3 3 3 3 4 4 4 4 4 4 4 4 4 3 4 4 4 4 3 4 5 5 4 3 3 3 3 2 2 2 2 2 2 2 2 2 2
2 2 2 2 2 3 3 3 3 4 3 4 4 4 4 4 4 4 4 3 4 4 4 3 4 5 5 5 5 4 3 2 1 1 1 1 2 1 1 1 2 2 2
Wind_Direction
159 155 138 143 133 137 140 144 139 119 115 118 119 113 111 105 102 95 91 93 94 69 63 73 36 74 51 28 84 112 143 161 195 274 283 257 114 124 121 119 126 123 128
163 153 148 150 143 151 158 164 145 133 132 137 133 119 116 106 104 114 108 83 96 88 76 74 43 57 58 52 70 67 114 181 167 194 254 198 135 148 139 135 128 125 118
156 149 151 161 164 165 172 165 152 141 132 115 116 119 108 100 90 93 106 92 94 99 92 94 81 75 54 41 56 56 42 66 130 156 168 125 95 111 103 99 91 81 116
154 155 157 170 174 165 161 149 147 141 129 113 106 106 103 96 81 66 79 90 90 86 84 90 88 94 91 73 70 63 79 79 84 104 116 103 97 87 107 121 107 79 107
154 155 164 165 156 138 135 132 126 124 124 121 106 93 85 86 74 103 112 105 104 95 77 74 80 83 82 75 84 88 91 92 90 97 103 98 116 124 156 169 153 145 95
155 163 163 152 141 138 144 135 121 112 102 95 98 97 79 62 69 105 116 112 106 104 93 63 67 68 63 60 68 79 100 117 123 120 123 144 197 195 175 165 158 139 212
151 150 154 151 148 155 152 128 135 144 130 118 111 102 96 65 91 111 116 116 111 121 122 103 72 61 59 58 49 47 53 67 110 145 158 195 196 205 171 158 175 172 195
155 156 154 151 155 155 146 147 155 156 152 143 129 127 118 78 96 114 112 102 97 101 111 120 111 74 51 71 77 56 38 21 16 151 178 208 195 184 179 181 180 152 70
167 173 172 164 157 149 151 160 166 147 140 145 145 143 128 89 91 114 117 103 95 86 82 95 110 101 42 81 90 74 40 356 359 58 85 97 104 116 122 100 94 98 66
175 173 169 165 160 158 163 168 171 160 151 144 141 143 139 136 106 116 123 117 108 94 57 57 92 100 68 92 107 105 68 318 355 28 36 32 44 61 112 144 156 146 143
169 163 165 167 164 162 158 167 157 152 135 143 147 143 142 152 134 115 126 132 145 142 145 291 295 83 75 85 120 145 199 187 74 72 53 31 25 23 16 164 172 162 164
157 163 170 171 172 162 157 163 155 150 148 161 152 142 156 186 128 117 126 129 141 144 183 233 245 118 98 97 106 102 112 97 79 64 49 9 337 304 284 268 237 205 195
158 168 172 166 169 160 162 166 160 156 164 175 168 178 201 217 244 107 125 126 120 132 187 192 111 102 90 74 71 85 96 96 95 88 75 272 268 269 291 340 352 2 356
168 177 173 163 161 158 162 169 171 176 182 185 182 189 194 200 214 210 180 135 106 92 71 55 72 69 62 49 40 46 61 114 142 167 210 259 313 353 349 2 18 359 12
177 180 175 170 165 162 156 174 192 204 197 190 194 191 185 202 221 199 176 179 181 176 119 71 56 49 42 28 22 11 16 49 72 48 50 15 353 344 306 303 122 94 155
175 181 180 176 173 166 159 110 13 239 212 199 194 189 204 206 191 182 176 172 163 147 126 125 143 156 171 180 173 313 356 23 83 119 93 157 248 273 292 324 29 124 243
182 187 184 181 179 180 181 178 184 345 31 133 206 198 192 183 176 173 166 152 143 140 133 152 167 177 184 184 182 181 231 271 222 124 146 242 278 298 155 316 311 293 276
179 187 184 185 186 187 191 191 186 186 201 238 241 205 190 179 175 168 145 118 103 119 149 166 175 176 176 176 171 163 154 30 54 98 168 248 223 208 244 252 235 235 261
180 183 185 186 192 197 197 193 194 197 196 191 178 189 181 169 160 159 146 145 165 176 179 178 180 176 181 177 169 165 165 193 228 223 251 264 257 228 244 255 254 258 257
193 193 191 194 194 197 199 196 194 193 190 184 185 184 161 143 154 173 179 181 178 184 183 182 185 177 176 173 171 169 172 203 223 235 249 255 250 229 234 244 241 246 259
190 204 202 201 201 202 205 203 194 186 187 192 196 186 170 170 181 186 190 192 190 191 189 184 185 182 179 177 177 179 184 208 219 227 236 242 236 239 248 246 249 242 251
180 199 203 208 210 207 205 195 183 181 183 184 182 175 177 171 175 181 190 197 197 197 190 181 185 188 186 187 183 180 186 209 232 235 237 240 240 245 248 242 253 254 250
187 200 206 207 201 203 200 192 180 178 178 178 172 168 171 182 188 191 196 198 192 191 189 180 182 192 192 187 184 179 185 207 221 217 217 227 233 243 248 247 246 253 263
203 203 201 200 191 190 188 187 183 182 179 173 171 175 179 183 188 195 195 188 184 189 188 182 184 185 184 184 189 194 199 210 214 215 211 211 216 233 242 254 256 254 251
204 202 197 203 199 190 186 184 179 180 179 175 178 183 185 185 188 195 195 189 183 187 188 184 182 182 183 183 181 189 204 207 211 211 202 195 203 216 230 243 254 262 258
199 203 201 200 195 188 184 181 179 183 185 185 184 184 185 186 190 193 193 192 191 194 196 194 191 189 185 182 180 175 173 178 178 179 173 182 199 221 232 246 258 258 265